National Weather Service United States Department of Commerce
Data are updated at 11 and 26 past the hour. Coastal data is often not avaialable until 26 past the hour.
Check the Preious Version of the data HERE if data are missing.  

NYCBOYDAT LOC
TTAA00 KOKX 211208

Coastal Waters Roundup...For Informational Purposes Only
National Weather Service New York NY
700 AM EST TUE NOV 21 2017

...Ocean Waters...
  
STATION/POSITION TIME  TEMP    WIND        PRES    WAVE   WND WV SWELL
                       AIR SEA DIR/SP/G            HT/PER HT/PER HT/PER/DIR
                 (UTC) (F)     (DEG/KT/KT) (MB)    (FT/S) (FT/S) (FT/S/D)
NY Harb Entrance 1050   52 58  230/ 17/ 23 1019.7    4/ 5   5/ 5
20 S Fire Is NY  1050   54 56  230/ 21/ 27 1020.6    7/ 6   7/ 6
Texas Tower #4   1050   55 59  220/ 19/ 23 1021.4    5/ 6   5/ 6

...Long Island South Shore (WeatherFlow - Wind is MPH)...
  
STATION/POSITION TIME  TEMP    WIND        PRES    WAVE   WND WV SWELL
                       AIR SEA DIR/SP/G            HT/PER HT/PER HT/PER/DIR
                 (UTC) (F)     (DEG/KT/KT) (MB)    (FT/S) (FT/S) (FT/S/D)
Great South Bay  1115   48 46  250/ 12/ 16   N/A

CITY           SKY/WX    TMP DP  RH WIND       PRES   REMARKS
Breezy Point     N/A     43 N/A N/A SW9G17      N/A                   
Jones Beach CG   N/A     48 N/A N/A SW14G23     N/A                   
Amityville       N/A     48 N/A N/A SW15        N/A                   
Boat Channel     N/A     50 N/A N/A SW22        N/A                   
Fire Island CG   N/A     50 N/A N/A SW20G28     N/A                   
Pt O Woods       N/A    N/A N/A N/A W17         N/A                   
Blue Pt          N/A     46 N/A N/A W9          N/A                   
East Moriches    N/A    N/A N/A N/A W14         N/A                   
Shinncock Inle   N/A     52 N/A N/A SW25        N/A                   
Mecox Bay        N/A     46 N/A N/A W12         N/A                   
Napeaque         N/A    N/A N/A N/A W6          N/A                   

...Long Island Sound...
  
STATION/POSITION TIME  TEMP    WIND        PRES    WAVE   WND WV SWELL
                       AIR SEA DIR/SP/G            HT/PER HT/PER HT/PER/DIR
                 (UTC) (F)     (DEG/KT/KT) (MB)    (FT/S) (FT/S) (FT/S/D)
Kings Point      1148   44 49  240/ 10/ 14 1021.1
Execution Rocks  1130   46     190/ 10/ 16   N/A
Western LI Sound 1145   46     220/ 12/ 16   N/A     1/ 2
New Haven NOS    1148   41 50  260/  2/  4 1020.6
Central LI Sound 1145   50     230/ 19/ 23   N/A     3
Ledge Light      1145   49     230/ 20/ 24 1019.3

...Long Island Sound Coastal  (WeatherFlow - Wind is MPH)...
  
CITY           SKY/WX    TMP DP  RH WIND       PRES   REMARKS
Larchmont        N/A     43 N/A N/A SW9         N/A                   
Norwalk          N/A     41 N/A N/A SW7         N/A                   
Bayville         N/A     45 N/A N/A SW13        N/A                   
Eatons Neck      N/A     41 N/A N/A SW7G13      N/A                   
Mt Sinai         N/A    N/A N/A N/A S3          N/A                   
New Haven Harb   N/A     41 N/A N/A W7          N/A                   
Hammonasset      N/A     46 N/A N/A SW18        N/A                   
USCG Academy     N/A     46 N/A N/A SW2         N/A                   
Gull Island      N/A     48 N/A N/A SW18G24     N/A                   
Fishers Island   N/A     48 N/A N/A SW16        N/A                   

...Block Island Sound (WeatherFlow - Wind is MPH)...
  
CITY           SKY/WX    TMP DP  RH WIND       PRES   REMARKS
Block Island     N/A     50 N/A N/A SW23        N/A                   
Ninigret Pond    N/A     48 N/A N/A W9G16       N/A                   
Point Judith     N/A     50 N/A N/A SW28G33     N/A                   

...NY Harbor...
  
STATION/POSITION TIME  TEMP    WIND        PRES    WAVE   WND WV SWELL
                       AIR SEA DIR/SP/G            HT/PER HT/PER HT/PER/DIR
                 (UTC) (F)     (DEG/KT/KT) (MB)    (FT/S) (FT/S) (FT/S/D)
Bergen Point     1148   38 51              1020.3
Robbins Reef     1148   43     210/  5/  8 1020.9
Sandy Hook       1148   43 45  210/ 14/ 17 1021.1

...NY Harbor (WeatherFlow - Wind is MPH)...
  
CITY           SKY/WX    TMP DP  RH WIND       PRES   REMARKS
Bayonne          N/A     37 N/A N/A S2          N/A                   
Perth Amboy      N/A     41 N/A N/A SW12        N/A                   
Sandy Hook       N/A    N/A N/A N/A SW15        N/A                   

...New England Waters...
  
STATION/POSITION TIME  TEMP    WIND        PRES    WAVE   WND WV SWELL
                       AIR SEA DIR/SP/G            HT/PER HT/PER HT/PER/DIR
                 (UTC) (F)     (DEG/KT/KT) (MB)    (FT/S) (FT/S) (FT/S/D)
Buzzards Bay MA  1100   51     240/ 25/ 28 1020.3
Nantucket Shoals 1050   53 55              1022.0    8/ 8   7/ 6   3/240/ 8
Nantucket Sound  1050   49 49  260/ 14/ 16 1020.6    2/ 4   2/ 4
Boston Harbor    1050   44 50  200/ 16/ 19 1017.9    2/ 3   2/ 3
Mass Bay         1104   45 49  220/ 17/ 19 1018.4    3/ 4
Jeffrey's Ledge  1136      49                N/A     4/ 5   3/ 5
Isle of Shoals   1100   41     220/ 20/ 22 1018.2
Mnt Desert Rock  1200   33     150/  5/  6 1019.9
Matinicus Rock M 1100   34     200/  2/  3 1018.6
Gulf of Maine    1050   46 51              1018.7    5/ 6
12 SE Portland M 1050   42 49  240/ 10/ 16 1018.2    3/ 5   2/ 5   2/190/ 5
$$

...Southern NJ Coast...
  
STATION/POSITION TIME  TEMP    WIND        PRES    WAVE   WND WV SWELL
                       AIR SEA DIR/SP/G            HT/PER HT/PER HT/PER/DIR
                 (UTC) (F)     (DEG/KT/KT) (MB)    (FT/S) (FT/S) (FT/S/D)
Delaware Bay     1050   54 58  210/ 21/ 25 1022.4    4/ 5   3/ 5
$$

...MID-ATLANTIC AND SOUTHEAST COAST... 
  
STATION/POSITION TIME  TEMP    WIND        PRES    WAVE   WND WV SWELL
                       AIR SEA DIR/SP/G            HT/PER HT/PER HT/PER/DIR
                 (UTC) (F)     (DEG/KT/KT) (MB)    (FT/S) (FT/S) (FT/S/D)
Thomas Point MD  1200   48 52  200/ 21/ 22   N/A
Diamond Shoals N 1150   63 76  340/  6/ 10 1024.3    2/ 8          2/ 70/ 8
Cape Lookout NC  1100           20/  9/ 10 1024.1
Frying Pan Shls  1150   68 71  140/  6/ 10 1022.8    2/ 9   2/ 3   2/ 70/ 9
Duck Pier NC     1148   49 59  210/  5/  5 1024.0
Folly Island SC  1100   56      30/ 10/ 11 1022.0
St Augustine FL  1200   71 67  120/ 10/ 11 1018.1
64 E VA Beach VA 1150   57 60  230/ 12/ 14 1024.5    2/ 4   2/ 4   2/ 60/ 6
Edisto SC        1150   71 73  120/ 12/ 16 1021.0    3/ 8   2/ 5   2/ 90/ 8
Grays Reef GA    1050   69 67  120/  6/  8 1019.6    4/ 5   2/ 4   3/110/ 5
20 E Cape Canave 1150   76 78  100/ 17/ 21 1016.9    6/ 7   5/ 7   3/140/11
South Hatteras N 1050   70 76  100/ 16/ 19 1022.3    5/ 8   3/ 7   3/ 20/ 8
Georges Bank     1050   51 53              1021.4   14/ 9
$$

 

Updated:  1/4/16